User: anonymous   Login
Location: Oshawa
(43.9000°N, 78.8670°W)
Time: 11:53:18
(UTC-04:00)
Language:

Cosmos 839 Rocket - Orbit

View from above orbital plane
View from above orbital plane
View from above satellite
View from above satellite

Ground track
Ground track

The orbit data is extracted from the following two-line orbital elements,

1 09013U 76067B   15212.21394100 -.00000075  00000-0 -64472-4 0  9991
2 09013 065.8630 260.3009 0717303 341.5792 069.5293 12.35316268761796
Epoch (UTC): 31 July 2015 05:08:04
Eccentricity: 0.0717303
inclination: 65.8630°
perigee height: 959 km
apogee height: 2093 km
right ascension of ascending node: 260.3009°
argument of perigee: 341.5792°
revolutions per day: 12.35316268
mean anomaly at epoch: 69.5293°
orbit number at epoch: 76179

The dashed part of the orbit path shows where the satellite is in the earth's shadow,  

DLR